contact:dominique.lefevre@mio.osupytheas.fr, maurice.libes@osupytheas.fr, didier.mallarino@osupytheas.fr
Project:EMSO http://www.emso-fr.org/EMSO-France
Depth: 2436.0 m
Title:EMSO Ligure Ouest : Data MII capteur CSTAR
DateTime,Latitude,Longitude,Instrument_Serial,Reference_Counts,Signal_Counts,Corrected_Signal_raw_counts,Calculated_Beam_c_inverse_meters,Internal_thermistor_counts
DateTime,Latitude,Longitude,Instrument_Serial,Reference_Counts,Signal_Counts,Corrected_Signal_raw_counts,Calculated_Beam_c_inverse_meters,Internal_thermistor_counts
2024-03-31T00:02:09,42.805,6.029,CST-1368DR,4126,4091,10509,01.584,553
2024-03-31T00:05:10,42.805,6.029,CST-1368DR,4126,4093,10513,01.583,553
2024-03-31T00:08:12,42.805,6.029,CST-1368DR,4126,4095,10519,01.580,553
2024-03-31T00:11:14,42.805,6.029,CST-1368DR,4126,4095,10518,01.581,553
2024-03-31T00:14:15,42.805,6.029,CST-1368DR,4126,4071,10457,01.604,553
2024-03-31T00:17:17,42.805,6.029,CST-1368DR,4126,4095,10518,01.581,553
2024-03-31T00:20:18,42.805,6.029,CST-1368DR,4126,4088,10502,01.587,553
2024-03-31T00:23:20,42.805,6.029,CST-1368DR,4126,4096,10521,01.580,553
2024-03-31T00:26:22,42.805,6.029,CST-1368DR,4126,4092,10511,01.583,553
2024-03-31T00:29:23,42.805,6.029,CST-1368DR,4126,4087,10500,01.588,553
2024-03-31T00:32:25,42.805,6.029,CST-1368DR,4126,4086,10497,01.589,553
2024-03-31T00:35:26,42.805,6.029,CST-1368DR,4126,4088,10500,01.588,553
2024-03-31T00:38:28,42.805,6.029,CST-1368DR,4126,4097,10524,01.579,553
2024-03-31T00:41:29,42.805,6.029,CST-1368DR,4126,4106,10547,01.570,553
2024-03-31T00:44:31,42.805,6.029,CST-1368DR,4126,4102,10537,01.574,553
2024-03-31T00:47:33,42.805,6.029,CST-1368DR,4126,4106,10547,01.570,553
2024-03-31T00:50:34,42.805,6.029,CST-1368DR,4126,4111,10559,01.565,553
2024-03-31T00:53:36,42.805,6.029,CST-1368DR,4126,4108,10553,01.568,553
2024-03-31T00:56:37,42.805,6.029,CST-1368DR,4126,4111,10560,01.565,553
2024-03-31T00:59:39,42.805,6.029,CST-1368DR,4126,4108,10552,01.568,553
2024-03-31T01:02:40,42.805,6.029,CST-1368DR,4126,4112,10563,01.564,553
2024-03-31T01:05:42,42.805,6.029,CST-1368DR,4126,4103,10539,01.573,553
2024-03-31T01:08:44,42.805,6.029,CST-1368DR,4126,4110,10559,01.565,553
2024-03-31T01:11:45,42.805,6.029,CST-1368DR,4126,4118,10579,01.558,553
2024-03-31T01:14:47,42.805,6.029,CST-1368DR,4126,4115,10570,01.561,553
2024-03-31T01:17:48,42.805,6.029,CST-1368DR,4126,4115,10570,01.561,553
2024-03-31T01:20:50,42.805,6.029,CST-1368DR,4126,4107,10550,01.569,553
2024-03-31T01:23:52,42.805,6.029,CST-1368DR,4126,4109,10555,01.567,553
2024-03-31T01:26:53,42.805,6.029,CST-1368DR,4126,4112,10562,01.564,553
2024-03-31T01:29:55,42.805,6.029,CST-1368DR,4126,4112,10563,01.564,553
2024-03-31T01:32:56,42.805,6.029,CST-1368DR,4125,4111,10563,01.564,553
2024-03-31T01:35:58,42.805,6.029,CST-1368DR,4125,4100,10534,01.575,553
2024-03-31T01:38:59,42.805,6.029,CST-1368DR,4125,4104,10545,01.571,553
2024-03-31T01:42:01,42.805,6.029,CST-1368DR,4125,4096,10525,01.578,553
2024-03-31T01:45:03,42.805,6.029,CST-1368DR,4125,4102,10539,01.573,553
2024-03-31T01:48:04,42.805,6.029,CST-1368DR,4125,4101,10537,01.574,553
2024-03-31T01:51:06,42.805,6.029,CST-1368DR,4125,4101,10536,01.574,553
2024-03-31T01:54:07,42.805,6.029,CST-1368DR,4125,4099,10532,01.576,553
2024-03-31T01:57:09,42.805,6.029,CST-1368DR,4125,4099,10532,01.576,553
2024-03-31T02:00:10,42.805,6.029,CST-1368DR,4125,4102,10539,01.573,553
2024-03-31T02:03:12,42.805,6.029,CST-1368DR,4125,4102,10541,01.572,553
2024-03-31T02:06:14,42.805,6.029,CST-1368DR,4125,4102,10539,01.573,553
2024-03-31T02:09:15,42.805,6.029,CST-1368DR,4125,4100,10535,01.574,553
2024-03-31T02:12:17,42.805,6.029,CST-1368DR,4125,4103,10543,01.571,553
2024-03-31T02:15:18,42.805,6.029,CST-1368DR,4125,4104,10544,01.571,553
2024-03-31T02:18:20,42.805,6.029,CST-1368DR,4125,4091,10510,01.584,553
2024-03-31T02:21:22,42.805,6.029,CST-1368DR,4125,4101,10537,01.574,553
2024-03-31T02:24:23,42.805,6.029,CST-1368DR,4125,4104,10546,01.570,553
2024-03-31T02:27:25,42.805,6.029,CST-1368DR,4125,4099,10533,01.575,553
2024-03-31T02:30:26,42.805,6.029,CST-1368DR,4125,4105,10548,01.569,553
2024-03-31T02:33:28,42.805,6.029,CST-1368DR,4125,4100,10534,01.575,553
2024-03-31T02:36:29,42.805,6.029,CST-1368DR,4125,4104,10544,01.571,553
2024-03-31T02:39:31,42.805,6.029,CST-1368DR,4125,4104,10545,01.571,553
2024-03-31T02:42:33,42.805,6.029,CST-1368DR,4125,4106,10550,01.569,553
2024-03-31T02:45:34,42.805,6.029,CST-1368DR,4125,4104,10544,01.571,553
2024-03-31T02:48:36,42.805,6.029,CST-1368DR,4125,4104,10546,01.570,553
2024-03-31T02:51:37,42.805,6.029,CST-1368DR,4125,4106,10549,01.569,553
2024-03-31T02:54:39,42.805,6.029,CST-1368DR,4125,4104,10546,01.570,553
2024-03-31T02:57:40,42.805,6.029,CST-1368DR,4125,4106,10550,01.569,553
2024-03-31T03:00:42,42.805,6.029,CST-1368DR,4125,4108,10554,01.567,553
2024-03-31T03:03:44,42.805,6.029,CST-1368DR,4125,4107,10553,01.568,553
2024-03-31T03:06:45,42.805,6.029,CST-1368DR,4125,4107,10552,01.568,553
2024-03-31T03:09:47,42.805,6.029,CST-1368DR,4125,4108,10556,01.566,553
2024-03-31T03:12:48,42.805,6.029,CST-1368DR,4125,4108,10555,01.567,553
2024-03-31T03:15:50,42.805,6.029,CST-1368DR,4125,4109,10557,01.566,553
2024-03-31T03:18:52,42.805,6.029,CST-1368DR,4125,4109,10559,01.565,553
2024-03-31T03:21:53,42.805,6.029,CST-1368DR,4125,4107,10553,01.568,553
2024-03-31T03:24:55,42.805,6.029,CST-1368DR,4125,4109,10557,01.566,553
2024-03-31T03:27:56,42.805,6.029,CST-1368DR,4125,4108,10554,01.567,553
2024-03-31T03:30:58,42.805,6.029,CST-1368DR,4125,4109,10559,01.565,553
2024-03-31T03:33:59,42.805,6.029,CST-1368DR,4125,4108,10556,01.566,553
2024-03-31T03:37:01,42.805,6.029,CST-1368DR,4125,4109,10557,01.566,553
2024-03-31T03:40:03,42.805,6.029,CST-1368DR,4125,4110,10559,01.565,553
2024-03-31T03:43:04,42.805,6.029,CST-1368DR,4125,4108,10556,01.566,553
2024-03-31T03:46:06,42.805,6.029,CST-1368DR,4125,4111,10562,01.564,553
2024-03-31T03:49:07,42.805,6.029,CST-1368DR,4125,4113,10567,01.562,553
2024-03-31T03:52:09,42.805,6.029,CST-1368DR,4125,4110,10559,01.565,553
2024-03-31T03:55:10,42.805,6.029,CST-1368DR,4125,4109,10559,01.565,553
2024-03-31T03:58:12,42.805,6.029,CST-1368DR,4125,4111,10564,01.563,553
2024-03-31T04:01:14,42.805,6.029,CST-1368DR,4125,4111,10563,01.564,553
2024-03-31T04:04:15,42.805,6.029,CST-1368DR,4125,4113,10569,01.561,553
2024-03-31T04:07:17,42.805,6.029,CST-1368DR,4125,4112,10565,01.563,553
2024-03-31T04:10:18,42.805,6.029,CST-1368DR,4125,4110,10559,01.565,553
2024-03-31T04:13:20,42.805,6.029,CST-1368DR,4125,4111,10563,01.564,553
2024-03-31T04:16:22,42.805,6.029,CST-1368DR,4125,4111,10564,01.563,553
2024-03-31T04:19:23,42.805,6.029,CST-1368DR,4125,4111,10562,01.564,553
2024-03-31T04:22:25,42.805,6.029,CST-1368DR,4125,4110,10559,01.565,553
2024-03-31T04:25:26,42.805,6.029,CST-1368DR,4124,4112,10567,01.562,553
2024-03-31T04:28:28,42.805,6.029,CST-1368DR,4125,4111,10563,01.564,553
2024-03-31T04:31:29,42.805,6.029,CST-1368DR,4125,4111,10563,01.564,553
2024-03-31T04:34:31,42.805,6.029,CST-1368DR,4125,4114,10571,01.561,553
2024-03-31T04:37:33,42.805,6.029,CST-1368DR,4124,4112,10567,01.562,553
2024-03-31T04:40:34,42.805,6.029,CST-1368DR,4124,4110,10562,01.564,553
2024-03-31T04:43:36,42.805,6.029,CST-1368DR,4124,4108,10559,01.565,553
2024-03-31T04:46:37,42.805,6.029,CST-1368DR,4124,4110,10564,01.563,553
2024-03-31T04:49:39,42.805,6.029,CST-1368DR,4124,4109,10561,01.565,553
2024-03-31T04:52:40,42.805,6.029,CST-1368DR,4124,4109,10560,01.565,553
2024-03-31T04:55:42,42.805,6.029,CST-1368DR,4124,4112,10568,01.562,553
2024-03-31T04:58:44,42.805,6.029,CST-1368DR,4124,4114,10573,01.560,553
2024-03-31T05:01:45,42.805,6.029,CST-1368DR,4124,4111,10566,01.563,553
2024-03-31T05:04:47,42.805,6.029,CST-1368DR,4124,4112,10568,01.562,553
2024-03-31T05:07:48,42.805,6.029,CST-1368DR,4124,4115,10575,01.559,553
2024-03-31T05:10:50,42.805,6.029,CST-1368DR,4124,4114,10573,01.560,553
2024-03-31T05:13:52,42.805,6.029,CST-1368DR,4124,4115,10576,01.559,553
2024-03-31T05:16:53,42.805,6.029,CST-1368DR,4124,4110,10562,01.564,553
2024-03-31T05:19:55,42.805,6.029,CST-1368DR,4124,4114,10574,01.560,553
2024-03-31T05:22:56,42.805,6.029,CST-1368DR,4124,4113,10571,01.561,553
2024-03-31T05:25:58,42.805,6.029,CST-1368DR,4124,4114,10573,01.560,553
2024-03-31T05:28:59,42.805,6.029,CST-1368DR,4124,4114,10574,01.560,553
2024-03-31T05:32:01,42.805,6.029,CST-1368DR,4124,4118,10583,01.556,553
2024-03-31T05:35:03,42.805,6.029,CST-1368DR,4124,4116,10578,01.558,553
2024-03-31T05:38:04,42.805,6.029,CST-1368DR,4124,4114,10574,01.560,553
2024-03-31T05:41:06,42.805,6.029,CST-1368DR,4124,4115,10576,01.559,553
2024-03-31T05:44:07,42.805,6.029,CST-1368DR,4124,4116,10578,01.558,553
2024-03-31T05:47:09,42.805,6.029,CST-1368DR,4124,4113,10570,01.561,553
2024-03-31T05:50:10,42.805,6.029,CST-1368DR,4124,4107,10554,01.567,553
2024-03-31T05:53:12,42.805,6.029,CST-1368DR,4124,4111,10564,01.563,553
2024-03-31T05:56:14,42.805,6.029,CST-1368DR,4124,4115,10576,01.559,553
2024-03-31T05:59:15,42.805,6.029,CST-1368DR,4124,4112,10568,01.562,553
2024-03-31T06:02:17,42.805,6.029,CST-1368DR,4124,4114,10573,01.560,553
2024-03-31T06:05:18,42.805,6.029,CST-1368DR,4124,4112,10569,01.561,553
2024-03-31T06:08:20,42.805,6.029,CST-1368DR,4124,4112,10567,01.562,553
2024-03-31T06:11:22,42.805,6.029,CST-1368DR,4124,4109,10559,01.565,553
2024-03-31T06:14:23,42.805,6.029,CST-1368DR,4124,4108,10558,01.566,553
2024-03-31T06:17:25,42.805,6.029,CST-1368DR,4124,4115,10576,01.559,553
2024-03-31T06:20:26,42.805,6.029,CST-1368DR,4124,4110,10564,01.563,553
2024-03-31T06:23:28,42.805,6.029,CST-1368DR,4124,4111,10566,01.563,553
2024-03-31T06:26:29,42.805,6.029,CST-1368DR,4124,4116,10578,01.558,553
2024-03-31T06:29:31,42.805,6.029,CST-1368DR,4124,4113,10569,01.561,553
2024-03-31T06:32:33,42.805,6.029,CST-1368DR,4124,4107,10554,01.567,553
2024-03-31T06:35:34,42.805,6.029,CST-1368DR,4124,4110,10564,01.563,553
2024-03-31T06:38:36,42.805,6.029,CST-1368DR,4124,4112,10568,01.562,553
2024-03-31T06:41:37,42.805,6.029,CST-1368DR,4124,4112,10569,01.561,553
2024-03-31T06:44:39,42.805,6.029,CST-1368DR,4124,4113,10571,01.561,553
2024-03-31T06:47:40,42.805,6.029,CST-1368DR,4124,4110,10562,01.564,553
2024-03-31T06:50:42,42.805,6.029,CST-1368DR,4123,4110,10566,01.563,553
2024-03-31T06:53:44,42.805,6.029,CST-1368DR,4124,4111,10566,01.563,553
2024-03-31T06:56:45,42.805,6.029,CST-1368DR,4124,4114,10573,01.560,553
2024-03-31T06:59:47,42.805,6.029,CST-1368DR,4123,4107,10556,01.566,553
2024-03-31T07:02:48,42.805,6.029,CST-1368DR,4123,4107,10558,01.566,553
2024-03-31T07:05:50,42.805,6.029,CST-1368DR,4123,4112,10569,01.561,553
2024-03-31T07:08:51,42.805,6.029,CST-1368DR,4124,4112,10568,01.562,553
2024-03-31T07:11:53,42.805,6.029,CST-1368DR,4123,4107,10556,01.566,553
2024-03-31T07:14:55,42.805,6.029,CST-1368DR,4124,4111,10564,01.563,553
2024-03-31T07:17:56,42.805,6.029,CST-1368DR,4123,4113,10573,01.560,553
2024-03-31T07:20:58,42.805,6.029,CST-1368DR,4123,4107,10558,01.566,553
2024-03-31T07:23:59,42.805,6.029,CST-1368DR,4123,4119,10588,01.554,553
2024-03-31T07:27:01,42.805,6.029,CST-1368DR,4124,4113,10571,01.561,553
2024-03-31T07:30:03,42.805,6.029,CST-1368DR,4123,4106,10556,01.566,553
2024-03-31T07:33:04,42.805,6.029,CST-1368DR,4123,4110,10564,01.563,553
2024-03-31T07:36:06,42.805,6.029,CST-1368DR,4123,4112,10571,01.561,553
2024-03-31T07:39:07,42.805,6.029,CST-1368DR,4123,4108,10559,01.565,553
2024-03-31T07:42:09,42.805,6.029,CST-1368DR,4123,4112,10569,01.561,553
2024-03-31T07:45:10,42.805,6.029,CST-1368DR,4123,4114,10576,01.559,553
2024-03-31T07:48:12,42.805,6.029,CST-1368DR,4123,4112,10571,01.561,553
2024-03-31T07:51:14,42.805,6.029,CST-1368DR,4123,4109,10562,01.564,553
2024-03-31T07:54:15,42.805,6.029,CST-1368DR,4123,4108,10561,01.565,553
2024-03-31T07:57:17,42.805,6.029,CST-1368DR,4123,4111,10567,01.562,553
2024-03-31T08:00:18,42.805,6.029,CST-1368DR,4123,4109,10563,01.564,553
2024-03-31T08:03:20,42.805,6.029,CST-1368DR,4123,4108,10561,01.565,553
2024-03-31T08:06:21,42.805,6.029,CST-1368DR,4123,4109,10564,01.563,553
2024-03-31T08:09:23,42.805,6.029,CST-1368DR,4123,4107,10558,01.566,553
2024-03-31T08:12:25,42.805,6.029,CST-1368DR,4123,4113,10573,01.560,553
2024-03-31T08:15:26,42.805,6.029,CST-1368DR,4123,4110,10565,01.563,553
2024-03-31T08:18:28,42.805,6.029,CST-1368DR,4123,4114,10576,01.559,553
2024-03-31T08:21:29,42.805,6.029,CST-1368DR,4123,4113,10573,01.560,553
2024-03-31T08:24:31,42.805,6.029,CST-1368DR,4123,4108,10559,01.565,553
2024-03-31T08:27:33,42.805,6.029,CST-1368DR,4123,4110,10564,01.563,553
2024-03-31T08:30:34,42.805,6.029,CST-1368DR,4123,4112,10569,01.561,553
2024-03-31T08:33:36,42.805,6.029,CST-1368DR,4123,4106,10556,01.566,553
2024-03-31T08:36:37,42.805,6.029,CST-1368DR,4123,4107,10556,01.566,553
2024-03-31T08:39:39,42.805,6.029,CST-1368DR,4123,4102,10544,01.571,553
2024-03-31T08:42:40,42.805,6.029,CST-1368DR,4123,4106,10555,01.567,553
2024-03-31T08:45:42,42.805,6.029,CST-1368DR,4123,4095,10526,01.578,553
2024-03-31T08:48:44,42.805,6.029,CST-1368DR,4123,4100,10538,01.573,553
2024-03-31T08:51:45,42.805,6.029,CST-1368DR,4123,4098,10533,01.575,553
2024-03-31T08:54:47,42.805,6.029,CST-1368DR,4123,4103,10547,01.570,553
2024-03-31T08:57:48,42.805,6.029,CST-1368DR,4123,4106,10554,01.567,553
2024-03-31T09:00:50,42.805,6.029,CST-1368DR,4123,4102,10544,01.571,553
2024-03-31T09:03:51,42.805,6.029,CST-1368DR,4123,4102,10545,01.571,553
2024-03-31T09:06:53,42.805,6.029,CST-1368DR,4123,4103,10547,01.570,553
2024-03-31T09:09:55,42.805,6.029,CST-1368DR,4123,4104,10549,01.569,553
2024-03-31T09:12:56,42.805,6.029,CST-1368DR,4123,4103,10546,01.570,553
2024-03-31T09:15:58,42.805,6.029,CST-1368DR,4123,4106,10554,01.567,553
2024-03-31T09:18:59,42.805,6.029,CST-1368DR,4123,4105,10551,01.568,553
2024-03-31T09:22:01,42.805,6.029,CST-1368DR,4123,4097,10531,01.576,553
2024-03-31T09:25:02,42.805,6.029,CST-1368DR,4123,4100,10539,01.573,553
2024-03-31T09:28:04,42.805,6.029,CST-1368DR,4123,4102,10544,01.571,553
2024-03-31T09:31:06,42.805,6.029,CST-1368DR,4123,4106,10555,01.567,553
2024-03-31T09:34:07,42.805,6.029,CST-1368DR,4123,4101,10543,01.571,553
2024-03-31T09:37:09,42.805,6.029,CST-1368DR,4123,4100,10539,01.573,553
2024-03-31T09:40:10,42.805,6.029,CST-1368DR,4123,4102,10545,01.571,553
2024-03-31T09:43:12,42.805,6.029,CST-1368DR,4123,4102,10544,01.571,553
2024-03-31T09:46:14,42.805,6.029,CST-1368DR,4122,4101,10545,01.571,553
2024-03-31T09:49:15,42.805,6.029,CST-1368DR,4122,4099,10539,01.573,553
2024-03-31T09:52:17,42.805,6.029,CST-1368DR,4122,4097,10535,01.574,553
2024-03-31T09:55:18,42.805,6.029,CST-1368DR,4122,4105,10556,01.566,553
2024-03-31T09:58:20,42.805,6.029,CST-1368DR,4122,4105,10555,01.567,553
2024-03-31T10:01:21,42.805,6.029,CST-1368DR,4123,4110,10564,01.563,553
2024-03-31T10:04:23,42.805,6.029,CST-1368DR,4122,4107,10559,01.565,553
2024-03-31T10:07:25,42.805,6.029,CST-1368DR,4122,4106,10558,01.566,553
2024-03-31T10:10:26,42.805,6.029,CST-1368DR,4122,4105,10555,01.567,553
2024-03-31T10:13:28,42.805,6.029,CST-1368DR,4123,4105,10551,01.568,553
2024-03-31T10:16:29,42.805,6.029,CST-1368DR,4122,4104,10552,01.568,553
2024-03-31T10:19:31,42.805,6.029,CST-1368DR,4122,4104,10551,01.568,553
2024-03-31T10:22:32,42.805,6.029,CST-1368DR,4122,4106,10557,01.566,553
2024-03-31T10:25:34,42.805,6.029,CST-1368DR,4122,4097,10535,01.574,553
2024-03-31T10:28:36,42.805,6.029,CST-1368DR,4122,4097,10535,01.574,553
2024-03-31T10:31:37,42.805,6.029,CST-1368DR,4122,4095,10530,01.576,553
2024-03-31T10:34:39,42.805,6.029,CST-1368DR,4122,4104,10553,01.568,553
2024-03-31T10:37:40,42.805,6.029,CST-1368DR,4122,4106,10558,01.566,553
2024-03-31T10:40:42,42.805,6.029,CST-1368DR,4122,4108,10563,01.564,553
2024-03-31T10:43:44,42.805,6.029,CST-1368DR,4122,4108,10563,01.564,553
2024-03-31T10:46:45,42.805,6.029,CST-1368DR,4122,4104,10551,01.568,553
2024-03-31T10:49:47,42.805,6.029,CST-1368DR,4122,4109,10566,01.563,553
2024-03-31T10:52:48,42.805,6.029,CST-1368DR,4122,4106,10556,01.566,553
2024-03-31T10:55:50,42.805,6.029,CST-1368DR,4122,4101,10545,01.571,553
2024-03-31T10:58:51,42.805,6.029,CST-1368DR,4122,4104,10552,01.568,553
2024-03-31T11:01:53,42.805,6.029,CST-1368DR,4122,4106,10558,01.566,553
2024-03-31T11:04:55,42.805,6.029,CST-1368DR,4122,4106,10558,01.566,553
2024-03-31T11:07:56,42.805,6.029,CST-1368DR,4122,4104,10552,01.568,553
2024-03-31T11:10:58,42.805,6.029,CST-1368DR,4122,4106,10557,01.566,553
2024-03-31T11:13:59,42.805,6.029,CST-1368DR,4122,4106,10558,01.566,553
2024-03-31T11:17:01,42.805,6.029,CST-1368DR,4122,4107,10559,01.565,553
2024-03-31T11:20:02,42.805,6.029,CST-1368DR,4122,4108,10562,01.564,553
2024-03-31T11:23:04,42.805,6.029,CST-1368DR,4122,4105,10556,01.566,553
2024-03-31T11:26:06,42.805,6.029,CST-1368DR,4122,4107,10561,01.565,553
2024-03-31T11:29:07,42.805,6.029,CST-1368DR,4122,4109,10564,01.563,553
2024-03-31T11:32:09,42.805,6.029,CST-1368DR,4122,4089,10515,01.582,553
2024-03-31T11:35:10,42.805,6.029,CST-1368DR,4122,4103,10550,01.569,553
2024-03-31T11:38:12,42.805,6.029,CST-1368DR,4122,4106,10557,01.566,553
2024-03-31T11:41:14,42.805,6.029,CST-1368DR,4122,4101,10543,01.571,553
2024-03-31T11:44:15,42.805,6.029,CST-1368DR,4122,4104,10552,01.568,553
2024-03-31T11:47:17,42.805,6.029,CST-1368DR,4122,4096,10533,01.575,553
2024-03-31T11:50:18,42.805,6.029,CST-1368DR,4122,4102,10547,01.570,553
2024-03-31T11:53:20,42.805,6.029,CST-1368DR,4122,4104,10551,01.568,553
2024-03-31T11:56:21,42.805,6.029,CST-1368DR,4122,4101,10545,01.571,553
2024-03-31T11:59:23,42.805,6.029,CST-1368DR,4122,4107,10561,01.565,553
2024-03-31T12:02:25,42.805,6.029,CST-1368DR,4122,4103,10549,01.569,553
2024-03-31T12:05:26,42.805,6.029,CST-1368DR,4122,4100,10543,01.571,553
2024-03-31T12:08:28,42.805,6.029,CST-1368DR,4122,4106,10558,01.566,553
2024-03-31T12:11:29,42.805,6.029,CST-1368DR,4122,4107,10560,01.565,553
2024-03-31T12:14:31,42.805,6.029,CST-1368DR,4122,4106,10556,01.566,553
2024-03-31T12:17:32,42.805,6.029,CST-1368DR,4122,4106,10558,01.566,553
2024-03-31T12:20:34,42.805,6.029,CST-1368DR,4122,4102,10546,01.570,553
2024-03-31T12:23:36,42.805,6.029,CST-1368DR,4122,4104,10553,01.568,553
2024-03-31T12:26:37,42.805,6.029,CST-1368DR,4122,4100,10541,01.572,553
2024-03-31T12:29:39,42.805,6.029,CST-1368DR,4122,4102,10547,01.570,553
2024-03-31T12:32:40,42.805,6.029,CST-1368DR,4122,4098,10537,01.574,553
2024-03-31T12:35:42,42.805,6.029,CST-1368DR,4122,4093,10524,01.579,553
2024-03-31T12:38:44,42.805,6.029,CST-1368DR,4122,4098,10536,01.574,553
2024-03-31T12:41:45,42.805,6.029,CST-1368DR,4122,4106,10556,01.566,553
2024-03-31T12:44:47,42.805,6.029,CST-1368DR,4122,4091,10519,01.580,553
2024-03-31T12:47:48,42.805,6.029,CST-1368DR,4122,4098,10536,01.574,553
2024-03-31T12:50:50,42.805,6.029,CST-1368DR,4122,4100,10541,01.572,553
2024-03-31T12:53:51,42.805,6.029,CST-1368DR,4121,4085,10505,01.586,553
2024-03-31T12:56:53,42.805,6.029,CST-1368DR,4121,4087,10511,01.583,553
2024-03-31T12:59:55,42.805,6.029,CST-1368DR,4121,4084,10504,01.586,553
2024-03-31T13:02:56,42.805,6.029,CST-1368DR,4121,4090,10519,01.580,553
2024-03-31T13:05:58,42.805,6.029,CST-1368DR,4121,4089,10516,01.582,553
2024-03-31T13:08:59,42.805,6.029,CST-1368DR,4121,4083,10500,01.588,553
2024-03-31T13:12:01,42.805,6.029,CST-1368DR,4121,4083,10500,01.588,553
2024-03-31T13:15:03,42.805,6.029,CST-1368DR,4121,4096,10533,01.575,553
2024-03-31T13:18:04,42.805,6.029,CST-1368DR,4121,4089,10516,01.582,553
2024-03-31T13:21:06,42.805,6.029,CST-1368DR,4121,4088,10514,01.582,553
2024-03-31T13:24:07,42.805,6.029,CST-1368DR,4121,4091,10520,01.580,553
2024-03-31T13:27:09,42.805,6.029,CST-1368DR,4121,4092,10523,01.579,553
2024-03-31T13:30:10,42.805,6.029,CST-1368DR,4121,4042,10395,01.628,553
2024-03-31T13:33:12,42.805,6.029,CST-1368DR,4121,4052,10420,01.618,553
2024-03-31T13:36:14,42.805,6.029,CST-1368DR,4121,4057,10435,01.613,553
2024-03-31T13:39:15,42.805,6.029,CST-1368DR,4121,4084,10502,01.587,553
2024-03-31T13:42:17,42.805,6.029,CST-1368DR,4121,4089,10516,01.582,553
2024-03-31T13:45:18,42.805,6.029,CST-1368DR,4121,4083,10500,01.588,553
2024-03-31T13:48:20,42.805,6.029,CST-1368DR,4121,4085,10505,01.586,553
2024-03-31T13:51:21,42.805,6.029,CST-1368DR,4121,4082,10499,01.588,553
2024-03-31T13:54:23,42.805,6.029,CST-1368DR,4121,4086,10507,01.585,553
2024-03-31T13:57:25,42.805,6.029,CST-1368DR,4121,4089,10515,01.582,553
2024-03-31T14:00:26,42.805,6.029,CST-1368DR,4121,4083,10500,01.588,553
2024-03-31T14:03:28,42.805,6.029,CST-1368DR,4121,4093,10525,01.578,553
2024-03-31T14:06:29,42.805,6.029,CST-1368DR,4121,4090,10518,01.581,553
2024-03-31T14:09:31,42.805,6.029,CST-1368DR,4121,4082,10499,01.588,553
2024-03-31T14:12:32,42.805,6.029,CST-1368DR,4121,4082,10498,01.588,553
2024-03-31T14:15:34,42.805,6.029,CST-1368DR,4121,4092,10525,01.578,553
2024-03-31T14:18:36,42.805,6.029,CST-1368DR,4121,4084,10503,01.587,553
2024-03-31T14:21:37,42.805,6.029,CST-1368DR,4121,4084,10504,01.586,553
2024-03-31T14:24:39,42.805,6.029,CST-1368DR,4121,4088,10514,01.582,553
2024-03-31T14:27:40,42.805,6.029,CST-1368DR,4121,4090,10518,01.581,553
2024-03-31T14:30:42,42.805,6.029,CST-1368DR,4121,4089,10515,01.582,553
2024-03-31T14:33:44,42.805,6.029,CST-1368DR,4121,4087,10511,01.583,553
2024-03-31T14:36:45,42.805,6.029,CST-1368DR,4121,4081,10495,01.590,553
2024-03-31T14:39:47,42.805,6.029,CST-1368DR,4121,4085,10507,01.585,553
2024-03-31T14:42:48,42.805,6.029,CST-1368DR,4121,4089,10516,01.582,553
2024-03-31T14:45:50,42.805,6.029,CST-1368DR,4121,4095,10531,01.576,553
2024-03-31T14:48:51,42.805,6.029,CST-1368DR,4121,4058,10436,01.612,553
2024-03-31T14:51:53,42.805,6.029,CST-1368DR,4121,4048,10410,01.622,553
2024-03-31T14:54:55,42.805,6.029,CST-1368DR,4121,4075,10479,01.596,553
2024-03-31T14:57:56,42.805,6.029,CST-1368DR,4121,4055,10428,01.615,553
2024-03-31T15:00:58,42.805,6.029,CST-1368DR,4121,4079,10489,01.592,553
2024-03-31T15:03:59,42.805,6.029,CST-1368DR,4121,4062,10446,01.608,553
2024-03-31T15:07:01,42.805,6.029,CST-1368DR,4121,4066,10456,01.604,553
2024-03-31T15:10:02,42.805,6.029,CST-1368DR,4121,4070,10467,01.600,553
2024-03-31T15:13:04,42.805,6.029,CST-1368DR,4121,4079,10489,01.592,553
2024-03-31T15:16:06,42.805,6.029,CST-1368DR,4121,4042,10395,01.628,553
2024-03-31T15:19:07,42.805,6.029,CST-1368DR,4120,4052,10424,01.617,553
2024-03-31T15:22:09,42.805,6.029,CST-1368DR,4121,4048,10412,01.621,553
2024-03-31T15:25:10,42.805,6.029,CST-1368DR,4121,4040,10389,01.630,553
2024-03-31T15:28:12,42.805,6.029,CST-1368DR,4120,4049,10416,01.620,553
2024-03-31T15:31:14,42.805,6.029,CST-1368DR,4120,4042,10399,01.626,553
2024-03-31T15:34:15,42.805,6.029,CST-1368DR,4121,4056,10430,01.614,553
2024-03-31T15:37:17,42.805,6.029,CST-1368DR,4121,4063,10450,01.607,553
2024-03-31T15:40:18,42.805,6.029,CST-1368DR,4121,4058,10436,01.612,553
2024-03-31T15:43:20,42.805,6.029,CST-1368DR,4121,4058,10437,01.612,553
2024-03-31T15:46:21,42.805,6.029,CST-1368DR,4121,4061,10444,01.609,553
2024-03-31T15:49:23,42.805,6.029,CST-1368DR,4121,4059,10439,01.611,553
2024-03-31T15:52:25,42.805,6.029,CST-1368DR,4121,4075,10479,01.596,553
2024-03-31T15:55:26,42.805,6.029,CST-1368DR,4121,4071,10469,01.600,553
2024-03-31T15:58:28,42.805,6.029,CST-1368DR,4121,4073,10475,01.597,553
2024-03-31T16:01:29,42.805,6.029,CST-1368DR,4121,4071,10471,01.599,553
2024-03-31T16:04:31,42.805,6.029,CST-1368DR,4121,4074,10477,01.596,553
2024-03-31T16:07:32,42.805,6.029,CST-1368DR,4121,4068,10462,01.602,553
2024-03-31T16:10:34,42.805,6.029,CST-1368DR,4121,4075,10480,01.595,553
2024-03-31T16:13:36,42.805,6.029,CST-1368DR,4121,4083,10500,01.588,553
2024-03-31T16:16:37,42.805,6.029,CST-1368DR,4121,4080,10492,01.591,553
2024-03-31T16:19:39,42.805,6.029,CST-1368DR,4121,4077,10485,01.593,553
2024-03-31T16:22:40,42.805,6.029,CST-1368DR,4121,4080,10492,01.591,553
2024-03-31T16:25:42,42.805,6.029,CST-1368DR,4120,4081,10499,01.588,553
2024-03-31T16:28:44,42.805,6.029,CST-1368DR,4121,4085,10506,01.585,553
2024-03-31T16:31:45,42.805,6.029,CST-1368DR,4120,4078,10489,01.592,553
2024-03-31T16:34:47,42.805,6.029,CST-1368DR,4120,4082,10500,01.588,553
2024-03-31T16:37:48,42.805,6.029,CST-1368DR,4121,4082,10497,01.589,553